Theta_e
306 307 308 308 308 308 308 308 310 311 314 315 314 314 313 312 311 306 302 305 303 302 304 306 307 304 306 304 299 301 300 301 296 294 295 295 294 296 295 297 295 294 291 292 291 288 288 301 300 294 297 297 297 297
306 307 307 308 308 308 307 308 309 311 313 314 314 314 313 312 311 308 300 305 308 303 304 307 307 309 309 309 307 305 299 304 301 298 298 298 296 295 293 292 300 295 297 294 293 292 298 298 297 298 298 297 297 296
305 307 307 307 307 307 307 308 308 310 312 313 313 314 313 313 311 307 301 302 304 302 303 303 304 308 310 311 315 306 307 308 302 303 299 297 297 296 293 295 298 299 300 294 294 295 296 298 299 300 300 299 300 300
306 307 307 307 307 307 307 309 309 309 311 313 313 313 313 312 311 309 301 302 304 304 298 301 309 306 312 312 312 311 311 305 305 303 299 298 298 300 296 297 296 299 299 295 293 295 298 299 299 299 301 302 303 303
306 306 307 307 307 307 308 309 309 309 310 313 313 313 313 312 311 305 303 303 305 303 298 299 303 307 308 307 307 307 306 304 301 301 299 299 299 298 296 297 295 298 297 295 293 297 296 297 299 302 301 301 302 301
305 306 307 307 307 307 307 306 307 308 309 313 314 314 313 311 308 302 296 303 304 305 301 296 302 304 307 307 305 304 304 301 300 300 299 300 300 297 293 293 299 299 301 300 298 300 299 301 303 304 303 303 303 301
305 306 307 307 307 307 307 306 307 308 309 313 313 312 311 309 304 300 298 302 304 305 302 296 296 302 304 303 302 302 301 300 300 296 297 297 296 296 292 292 299 300 301 302 302 301 299 300 300 303 303 303 303 301
305 306 307 307 307 307 307 306 307 307 308 311 311 311 309 308 306 301 304 307 306 304 304 296 294 298 302 298 298 299 298 298 298 297 296 296 296 294 291 296 300 302 302 302 301 301 300 303 303 302 301 301 299 298
305 306 306 307 307 307 307 307 307 307 308 310 310 309 307 300 297 301 310 309 307 305 297 295 293 292 300 297 297 298 297 294 297 295 295 296 293 291 295 298 300 302 300 299 303 304 303 301 301 300 299 298 296 297
305 306 306 307 307 307 307 307 307 308 306 310 308 302 295 298 308 309 304 300 300 299 300 297 297 295 298 296 296 295 295 293 291 294 296 292 293 297 299 299 302 302 302 303 300 299 299 299 300 299 297 298 298 300
305 306 307 307 307 307 307 307 307 306 309 304 299 296 300 310 300 298 294 294 293 292 294 297 297 295 299 295 294 295 292 293 291 293 293 291 291 295 299 301 301 302 303 303 303 302 301 301 299 297 297 298 299 301
306 306 306 306 306 307 307 306 307 306 304 304 303 305 302 299 296 293 289 291 291 291 293 296 297 298 297 299 297 295 293 293 290 295 292 290 294 298 300 301 303 304 304 303 304 302 302 301 299 298 297 298 298 298
306 306 306 306 306 307 306 306 307 308 307 306 302 299 297 292 286 288 285 287 288 292 294 296 296 299 299 299 296 296 293 290 296 292 291 294 296 300 299 303 303 304 304 303 302 302 301 300 300 298 297 301 300 301
306 306 306 306 306 306 305 306 306 307 303 296 293 289 290 288 292 290 290 291 294 295 296 299 296 297 296 296 295 293 295 293 288 288 291 295 297 298 302 304 303 301 302 301 301 301 299 299 299 301 301 301 301 300
305 306 306 306 306 306 305 306 307 307 301 295 295 287 289 293 293 295 295 296 298 301 300 298 297 297 295 295 294 293 290 289 290 291 295 295 296 301 302 303 302 301 300 299 298 298 298 298 298 300 301 301 301 301
305 305 302 305 305 305 305 305 304 304 300 297 295 292 294 292 291 293 295 296 300 301 301 299 295 293 293 293 292 291 290 289 292 295 296 296 299 301 302 302 302 301 300 298 297 297 297 297 296 300 301 301 301 301
302 295 305 305 305 304 305 302 301 298 297 296 293 294 294 293 295 295 297 298 302 302 295 294 293 293 294 292 290 294 292 293 295 295 296 299 301 301 302 302 302 300 298 297 296 296 296 301 301 300 298 300 301 301
296 304 306 305 304 304 302 301 297 296 294 295 293 293 296 296 296 297 301 301 299 297 296 295 295 291 291 291 291 296 296 295 296 297 298 301 303 303 303 301 301 300 297 297 296 296 296 299 298 298 299 300 301 301
303 304 305 305 304 299 295 296 298 292 293 294 294 296 297 298 301 303 304 302 301 301 299 296 293 290 292 296 296 297 296 296 297 297 299 302 303 303 302 301 300 298 297 296 295 294 298 299 299 299 299 300 299 298
304 305 305 305 304 297 294 295 301 295 291 292 294 295 296 297 299 300 300 298 297 297 295 293 294 296 297 299 301 300 298 301 301 299 299 300 303 303 301 300 298 297 296 296 295 294 294 294 294 299 299 299 299 299
303 304 304 304 301 300 296 294 293 295 293 292 293 293 293 297 295 295 295 297 296 293 293 297 298 298 300 301 302 302 301 302 302 302 302 301 301 302 301 299 298 297 296 296 295 294 293 293 294 296 299 299 300 300
301 305 302 303 297 297 294 297 294 296 294 294 293 293 290 290 291 292 295 297 297 299 298 298 298 300 301 300 300 302 300 300 300 300 299 301 301 301 300 300 298 297 296 297 297 296 295 295 295 295 298 299 298 300
304 302 299 297 292 292 291 298 293 293 289 291 293 291 291 290 293 296 294 296 298 300 300 300 299 300 300 299 300 299 301 300 300 302 303 303 303 303 302 302 301 299 298 297 297 297 296 293 293 295 296 297 299 299
303 297 293 291 291 288 295 292 294 293 293 289 291 290 292 292 296 295 292 293 296 299 299 300 301 299 299 298 297 298 298 298 299 301 303 304 301 301 302 302 302 302 302 300 298 297 297 297 294 296 296 296 297 298
292 291 291 287 293 292 291 291 291 292 290 292 291 291 291 295 292 292 291 294 298 298 297 298 299 299 298 297 297 297 299 301 301 301 301 304 301 300 300 300 300 300 302 302 300 299 298 298 298 299 298 297 297 296
286 291 288 291 290 291 291 289 290 290 291 291 291 293 295 293 291 290 289 293 294 296 297 297 297 296 296 297 296 296 297 299 301 300 299 303 304 302 300 298 297 299 302 301 299 299 300 299 299 299 299 299 291 296
287 289 291 295 293 293 291 291 292 291 289 288 287 287 290 288 289 290 292 295 296 297 299 300 300 299 299 298 298 299 300 301 302 302 301 302 303 304 304 300 299 301 303 303 301 301 300 300 300 302 304 302 303 302
293 293 289 291 291 292 290 290 289 289 288 289 289 287 287 287 284 290 292 295 297 298 298 298 299 300 299 299 300 300 300 301 301 301 300 300 301 303 303 303 303 288 303 303 302 301 300 300 299 300 302 305 304 303
291 293 292 289 290 290 289 290 289 291 292 291 287 286 287 289 292 292 293 298 299 301 299 297 296 298 298 298 298 299 300 299 298 296 296 296 297 300 303 303 302 302 303 299 289 295 299 299 299 303 303 304 305 301
292 294 290 290 289 287 288 291 289 290 290 289 290 291 291 292 295 297 296 298 297 299 297 296 296 297 296 296 296 298 299 300 301 300 297 297 298 301 304 304 303 302 303 301 299 297 287 292 293 298 298 301 301 297
295 292 291 290 288 288 290 291 291 291 291 289 290 289 290 292 295 297 297 298 298 298 297 295 295 296 296 296 295 296 297 300 302 303 303 303 303 303 303 304 304 304 303 302 300 298 297 295 295 295 297 301 301 296
292 291 289 287 287 290 291 290 289 288 288 287 287 290 292 292 290 293 297 297 296 294 291 294 295 295 297 297 297 297 293 299 300 301 301 300 299 300 299 300 302 303 302 300 299 297 297 299 298 295 296 300 299 297
292 292 291 290 289 288 290 290 288 287 288 287 288 289 289 288 285 291 296 297 296 295 295 296 297 298 298 297 297 298 295 299 296 291 290 289 287 290 295 299 301 301 299 298 297 297 298 297 298 298 296 298 298 298
Wind_Speed
17 19 21 20 19 17 16 17 14 12 20 22 21 21 20 18 16 5 3 4 3 2 5 2 2 4 3 2 4 3 5 6 5 6 3 1 2 1 4 3 2 4 5 1 2 1 2 6 3 3 4 1 1 3
17 18 19 20 19 17 15 16 14 13 17 23 22 22 20 18 17 6 2 2 3 2 4 3 4 2 2 3 5 3 5 3 5 5 1 2 2 3 2 1 4 3 5 6 3 5 3 4 4 2 2 1 4 4
18 18 18 20 19 18 16 17 15 12 12 24 22 22 21 18 17 8 2 3 1 2 3 4 4 6 3 1 3 5 2 4 2 3 5 3 6 3 3 1 2 3 3 5 3 2 2 4 2 4 5 5 5 4
17 18 18 20 19 18 15 16 15 10 11 24 22 21 20 18 16 8 1 2 1 1 4 5 3 3 7 6 3 2 7 5 6 3 4 4 4 1 3 3 3 2 4 5 3 1 2 3 3 4 6 5 6 6
18 18 19 20 20 18 16 14 12 10 8 24 22 21 19 17 13 5 1 2 0 2 4 2 5 5 5 7 9 9 7 5 4 4 5 2 1 3 3 3 2 1 5 4 5 6 5 2 4 4 7 5 6 6
18 18 19 21 21 21 18 15 10 9 8 23 22 21 19 17 12 4 2 2 4 3 3 1 4 5 6 7 10 9 5 5 4 4 2 1 0 4 4 1 3 2 2 5 5 5 6 7 6 3 6 5 4 5
19 19 20 22 22 21 19 18 14 10 8 19 21 21 19 17 4 3 5 2 4 2 2 3 3 4 4 5 4 4 5 3 4 3 3 3 2 4 3 3 6 3 4 6 7 8 6 2 4 5 5 4 5 5
20 20 21 22 22 22 22 20 16 12 9 13 23 20 17 10 6 4 2 8 4 2 2 4 2 3 4 3 3 3 3 4 6 2 2 3 2 3 1 4 5 5 7 7 6 6 7 7 6 4 5 5 7 6
21 21 22 23 23 23 22 21 19 14 13 18 27 23 7 3 2 4 2 10 1 3 4 2 5 4 3 2 1 4 3 4 3 2 0 4 1 3 7 8 9 9 6 9 8 9 7 7 6 6 5 6 5 5
22 23 23 23 24 23 22 21 19 15 4 31 15 4 3 5 6 3 5 3 4 3 3 2 1 3 4 2 2 2 3 2 2 4 2 3 4 3 3 4 8 8 12 12 10 5 4 4 5 4 4 3 2 4
23 23 24 24 24 24 23 21 19 13 20 3 4 3 1 11 4 4 3 4 1 0 2 3 4 5 1 4 3 1 2 0 2 5 5 1 4 4 5 9 7 7 8 7 8 7 6 6 6 4 3 3 2 5
24 23 24 25 25 25 23 20 21 7 2 6 5 6 4 4 4 5 4 2 3 7 3 6 5 5 2 3 5 0 3 2 3 2 3 3 4 4 8 11 9 9 11 9 7 8 7 7 6 5 3 2 2 2
24 24 24 24 24 24 24 19 20 8 5 3 6 4 4 0 4 9 10 4 4 4 5 4 3 4 2 4 4 3 3 4 1 2 4 5 4 6 7 11 9 8 10 10 9 7 7 6 5 4 2 2 2 4
24 25 25 25 25 25 22 21 24 5 3 4 3 7 5 6 6 6 6 6 6 6 7 5 4 4 1 4 3 4 2 3 1 2 5 3 7 8 9 10 13 9 8 9 8 7 6 5 5 4 3 2 2 3
24 25 25 24 24 23 22 17 13 3 3 4 4 6 7 4 4 5 4 5 4 8 7 5 5 4 3 5 1 4 3 4 5 5 4 4 7 11 12 9 10 9 7 6 5 5 5 5 5 3 2 2 3 3
26 23 8 25 23 21 18 12 1 2 2 4 3 3 1 4 2 2 4 4 3 7 4 5 5 4 2 5 4 7 6 6 5 4 2 8 10 10 10 9 8 7 7 6 6 5 5 5 4 3 2 3 3 3
14 1 24 24 21 19 17 3 3 1 2 3 2 1 2 1 7 4 4 4 4 10 5 5 6 8 3 4 4 5 6 5 4 3 4 10 14 12 10 9 8 8 7 6 5 5 3 3 3 2 2 3 3 2
4 15 24 24 17 10 2 3 2 2 3 1 3 1 1 2 5 3 3 3 5 4 6 6 6 4 6 7 3 4 2 1 3 5 6 9 10 10 9 10 8 8 7 6 5 4 3 4 3 1 1 1 2 3
15 15 25 24 11 3 2 3 2 3 2 1 2 2 1 1 2 4 5 3 4 5 7 3 5 4 4 3 3 3 4 3 6 4 5 7 10 11 9 9 8 7 7 6 5 4 2 2 2 1 1 1 1 0
24 23 24 19 5 1 4 2 1 3 2 2 2 3 2 3 1 3 5 3 4 5 5 3 4 4 5 4 4 4 4 8 12 8 6 3 5 10 9 8 6 6 5 5 4 4 2 2 1 1 1 2 2 1
17 15 20 8 2 3 4 3 2 1 1 3 3 3 3 3 4 5 4 3 6 3 2 2 2 0 2 3 6 8 7 8 8 9 10 7 3 6 6 4 6 4 4 4 4 3 4 3 3 2 2 1 1 1
5 14 2 2 3 3 4 2 3 2 3 2 3 3 4 4 4 4 3 5 3 1 3 4 3 4 6 6 5 6 7 8 7 7 8 10 6 5 5 5 5 5 4 4 4 4 4 4 4 3 2 2 2 2
11 2 1 3 5 6 3 2 4 5 5 4 4 5 4 3 2 2 4 2 1 2 2 3 5 5 8 6 8 7 6 8 6 7 7 5 4 4 5 5 4 5 4 5 4 4 4 5 5 4 3 2 1 2
5 3 3 3 4 3 1 3 2 3 3 3 3 3 3 3 4 5 3 1 2 3 3 7 9 9 7 7 5 3 3 4 5 4 5 7 5 3 4 4 4 4 4 3 4 4 4 4 5 4 4 3 3 3
3 0 4 4 2 4 3 3 3 3 3 3 3 3 1 1 3 3 0 1 2 3 2 3 6 4 9 3 3 3 2 6 8 7 2 5 5 4 4 3 2 2 3 4 3 4 4 4 4 5 5 5 5 6
4 3 3 4 3 4 4 4 2 4 4 4 3 2 1 3 3 2 3 3 3 3 4 5 5 4 4 3 5 3 3 3 6 6 3 5 8 8 7 5 4 3 3 3 4 4 4 5 5 6 6 7 6 6
3 2 1 1 5 4 4 4 3 6 4 4 3 3 3 3 2 4 1 2 3 3 4 4 5 5 6 4 2 2 4 4 4 4 4 4 4 5 7 7 6 5 5 5 4 4 4 4 4 5 7 6 8 8
1 3 4 2 5 3 5 4 3 3 3 3 5 3 7 7 6 3 3 3 2 4 4 3 3 5 6 5 4 5 5 5 6 6 5 4 2 2 4 3 3 6 5 5 5 4 4 3 3 4 5 7 6 5
5 2 5 6 5 5 4 3 2 2 2 3 4 3 3 1 2 2 3 1 1 7 7 6 4 5 5 4 4 3 5 5 6 5 5 3 1 2 2 3 4 3 4 4 4 4 4 3 3 4 6 4 4 4
3 2 5 5 5 3 3 1 2 2 4 4 4 3 2 2 3 2 1 3 3 7 5 5 5 5 5 5 4 5 4 1 4 5 4 3 4 2 3 4 4 4 4 4 4 3 2 2 1 1 4 4 3 3
3 4 5 4 4 2 2 3 3 4 4 4 3 3 3 2 3 4 3 2 3 5 7 6 5 3 5 5 4 5 4 3 3 5 5 4 4 4 3 1 2 3 3 4 5 5 4 3 3 3 5 7 8 6
3 3 4 4 2 1 1 3 3 4 3 3 2 2 2 3 2 2 1 3 4 4 3 5 6 3 4 4 4 4 5 3 3 4 5 4 3 3 3 2 2 1 2 4 4 4 5 6 5 5 5 8 8 9
6 5 5 4 3 3 1 4 3 3 3 2 2 3 2 4 4 4 1 1 3 5 5 4 4 4 5 6 5 4 4 2 2 4 4 5 4 2 1 2 3 2 2 2 3 3 6 7 6 6 6 7 9 10
Wind_Direction
213 211 203 195 196 195 197 211 224 217 195 177 175 170 168 164 161 132 250 190 147 212 283 329 12 53 6 27 131 255 43 355 37 64 108 203 123 209 88 126 170 136 117 134 85 71 317 354 342 49 217 352 30 344
208 205 199 190 190 190 189 204 223 212 197 170 172 168 164 162 164 129 291 255 174 169 241 296 280 212 215 224 144 14 153 144 176 91 82 114 66 48 107 129 0 57 171 163 152 201 229 313 86 66 150 99 7 30
204 199 193 186 185 187 189 198 211 209 200 164 167 165 160 159 164 148 212 287 62 41 323 29 353 318 345 284 199 119 289 159 104 165 151 142 82 115 91 280 97 25 124 95 101 251 92 77 54 49 52 81 63 65
199 195 191 183 180 184 191 183 193 197 206 161 164 160 157 158 168 157 133 295 85 116 109 284 325 320 317 360 51 189 128 65 101 81 85 90 102 106 185 177 125 206 58 119 64 77 54 41 32 86 83 71 51 34
193 191 187 181 175 177 175 168 172 184 217 160 161 155 153 153 154 102 56 260 225 113 165 257 304 318 357 24 34 41 74 82 54 48 50 73 134 84 356 63 4 355 158 150 206 194 138 194 72 108 84 67 42 23
188 186 184 178 173 168 160 161 175 173 214 159 157 149 144 141 130 120 358 267 193 171 85 94 300 345 343 25 34 30 34 67 80 107 128 122 274 101 95 153 271 292 127 147 164 151 117 107 94 70 84 63 43 21
184 182 180 176 172 168 167 165 180 171 188 158 144 139 143 148 118 149 181 192 129 117 103 60 352 322 332 31 21 16 23 52 86 105 72 128 25 78 100 174 206 195 135 101 114 108 69 38 123 74 83 62 42 39
180 178 177 173 168 164 164 166 173 172 180 153 134 132 125 86 13 346 275 187 130 126 88 113 277 4 6 30 25 359 38 21 12 119 42 103 19 54 250 235 145 137 106 92 89 77 113 120 102 95 64 44 41 18
174 175 173 170 165 163 162 164 168 165 174 150 123 119 101 73 161 234 164 126 141 122 131 109 141 208 358 52 33 20 57 52 302 85 253 85 352 226 221 167 166 169 158 139 96 98 107 115 104 71 60 38 45 6
170 171 170 167 166 164 160 157 155 160 199 133 125 101 149 214 207 98 27 45 22 353 52 168 105 154 103 29 31 76 18 119 104 256 81 84 247 259 259 177 145 147 131 132 120 134 112 97 107 92 69 69 54 30
167 168 167 164 161 159 157 153 155 158 170 83 133 132 205 134 82 47 86 122 171 293 186 205 172 136 256 111 152 133 161 133 117 256 126 266 275 245 157 126 118 117 113 94 106 103 118 141 143 129 81 70 30 36
165 165 164 162 159 156 157 157 169 186 138 167 137 112 106 92 63 123 172 105 164 208 194 146 187 154 177 119 98 248 118 63 221 166 95 252 248 161 126 119 115 115 111 108 111 116 111 106 114 114 117 101 51 36
162 161 161 158 155 154 156 171 184 256 138 66 59 74 113 176 95 164 176 211 164 187 167 151 110 130 70 58 67 97 97 214 97 86 223 230 170 150 119 125 110 107 112 111 108 108 116 119 114 120 128 63 65 30
159 158 155 152 151 150 159 184 195 234 65 82 127 145 175 182 206 192 159 157 211 137 137 117 92 117 136 75 138 108 207 105 127 221 238 202 175 137 134 133 127 128 126 121 125 135 133 128 117 108 79 68 55 37
153 152 148 149 148 155 178 185 182 268 119 133 143 180 193 188 183 184 198 119 181 143 126 88 62 90 44 106 94 113 132 233 203 225 230 173 136 132 132 129 125 126 128 124 123 119 114 117 115 98 67 64 61 38
143 137 142 148 149 160 173 177 302 227 137 151 191 138 83 106 146 176 184 152 170 132 81 66 110 94 165 138 143 200 156 207 237 215 159 125 126 131 129 128 127 129 127 121 115 115 108 107 119 108 70 54 44 62
110 44 151 149 146 143 145 149 227 125 116 147 225 177 191 117 174 170 148 158 152 144 142 125 113 182 128 143 206 169 183 215 193 144 135 141 138 135 128 124 125 126 121 118 118 122 130 117 106 113 82 28 57 47
72 138 140 136 128 116 149 230 99 114 150 127 134 233 226 180 125 139 123 137 109 119 128 171 129 133 170 173 232 191 154 24 60 130 126 125 124 128 133 131 129 128 123 125 124 123 127 118 126 123 83 64 73 56
130 131 137 133 140 133 144 50 27 91 78 359 307 309 264 123 54 108 101 83 105 113 108 63 111 162 197 195 159 168 162 158 141 117 103 118 132 130 127 121 123 123 131 137 135 135 128 129 137 150 150 121 121 102
128 131 130 148 148 140 78 61 40 54 83 290 11 360 47 66 346 88 90 70 94 98 62 101 177 200 172 193 177 137 129 139 131 119 118 105 126 129 136 138 140 138 126 122 125 122 110 78 22 185 171 155 139 121
116 139 152 171 201 74 64 65 47 63 21 65 330 23 43 25 37 35 38 343 67 92 136 218 204 337 114 96 109 118 127 142 147 146 147 147 158 129 127 123 130 134 138 153 157 174 174 186 192 196 174 185 214 248
95 154 94 276 77 87 94 21 102 71 51 5 25 32 41 39 24 18 301 53 65 188 183 148 155 127 109 114 117 126 120 105 95 95 88 117 128 127 144 156 144 167 178 188 175 176 190 188 185 190 217 229 234 270
119 83 25 57 85 39 37 357 60 16 43 34 15 38 32 27 322 299 72 49 316 356 105 97 85 79 106 95 89 78 102 120 123 130 137 133 130 128 130 153 153 158 187 220 188 182 186 186 193 197 229 278 297 316
53 67 99 82 83 120 132 69 70 80 87 62 52 57 43 357 338 52 66 351 306 353 75 114 113 99 74 61 79 89 113 112 108 93 127 131 131 157 149 149 156 173 188 167 162 179 188 198 199 204 210 227 268 279
108 273 108 82 141 112 119 100 125 122 93 115 100 92 15 35 73 57 164 312 71 110 84 82 76 102 123 107 86 67 49 149 147 143 180 143 113 88 84 88 122 155 148 128 166 190 206 190 197 216 221 215 231 249
91 186 130 130 157 106 112 103 92 102 94 65 54 113 76 75 82 164 240 189 159 179 161 141 135 98 59 81 122 109 143 138 118 123 178 160 152 152 160 158 165 248 209 166 145 164 189 202 212 221 229 226 224 230
68 70 43 73 115 119 95 62 76 81 92 133 158 116 101 112 173 233 265 237 151 194 173 154 137 133 138 134 104 112 130 139 126 150 137 159 160 159 157 166 189 213 169 173 172 166 170 197 226 242 247 237 231 223
65 61 101 28 65 53 108 97 107 116 145 146 117 147 165 178 203 249 228 279 197 132 110 94 117 126 132 141 136 120 85 90 91 89 80 60 63 148 172 189 161 149 148 167 182 175 183 211 248 266 267 264 250 214
39 21 74 54 58 45 39 67 100 85 127 109 105 125 143 258 253 278 295 341 109 126 112 106 59 88 87 90 88 109 122 129 125 144 173 191 171 260 196 151 139 165 158 157 178 194 189 202 239 287 282 289 284 238
25 34 77 44 53 44 322 321 96 88 47 88 105 105 71 5 319 314 37 78 103 133 130 125 132 119 127 119 115 69 19 159 151 133 149 187 208 187 166 174 181 193 176 168 178 169 156 203 255 276 274 263 247 217
90 66 74 62 75 4 116 99 68 63 61 52 45 83 101 130 7 15 37 59 92 103 109 100 79 89 121 138 135 117 85 11 80 101 109 119 110 89 83 117 190 181 184 191 190 200 205 211 221 247 269 269 236 203
63 90 118 107 119 241 63 58 64 67 56 57 40 47 56 67 78 312 14 95 94 93 94 114 120 126 118 113 106 98 118 121 111 102 106 100 88 60 48 47 357 292 215 214 211 213 230 239 248 254 260 271 212 194
69 69 71 83 65 73 32 93 68 67 50 73 117 184 150 144 197 229 301 151 153 152 151 148 146 147 145 131 131 132 122 114 88 109 106 104 106 87 335 1 1 294 223 195 227 240 252 252 251 252 265 244 191 176